Weather History for KFCM - September, 2012

Change the Weather History Date:

Monday, September 17, 2012

  Actual Average (KMSP) Record (KMSP)
Temperature  
Mean Temperature 56 °F 62 °F  
Max Temperature 64 °F 71 °F 96 °F (1895)
Min Temperature 50 °F 52 °F 34 °F (1943)
Degree Days  
Heating Degree Days 8 5  
Month to date heating degree days 54  
Since 1 July heating degree days 73  
Cooling Degree Days 0 2  
Month to date cooling degree days 52  
Year to date cooling degree days 733  
Growing Degree Days 6 (Base 50)    
Moisture  
Dew Point 43 °F    
Average Humidity 64    
Maximum Humidity 94    
Minimum Humidity 37    
Precipitation  
Precipitation 0.00 in 0.10 in 1.70 in (1942)
Month to date precipitation 1.79  
Year to date precipitation 23.96  
Snow  
Snow 0.00 in 0.00 in 0.00 in ()
Month to date snowfall 0.0  
Since 1 July snowfall 0.0  
Since 1 September snowfall 0.0  
Snow Depth -    
Sea Level Pressure  
Sea Level Pressure 29.97 in    
Wind  
Wind Speed 9 mph (NNW)    
Max Wind Speed 16 mph    
Max Gust Speed 20 mph    
Visibility 9 miles    
Events Rain    
T = Trace of Precipitation, MM = Missing Value Source: NWS Daily Summary

Daily Weather History Graph

Daily Weather History Graph

Search for Another Location

Airport or City:

Trip Planner

Search our weather history database for the weather conditions in past years. The results will help you decide how hot, cold, wet, or windy it might be!

Date:

Astronomy

Sep. 17, 2012 Rise Set
Actual Time 6:55 AM CDT 7:19 PM CDT
Civil Twilight 6:26 AM CDT 7:49 PM CDT
Nautical Twilight 5:51 AM CDT 8:23 PM CDT
Astronomical Twilight 5:15 AM CDT 8:59 PM CDT
Moon 8:53 AM CDT (9/17) 7:53 PM CDT (9/17)
Length of Visible Light 13h 22m
Length of Day
12h 24m
Waxing Crescent, 3% of the Moon is Illuminated
Sep 17
Waxing Crescent
Sep 22
First Quarter
Sep 29
Full
Oct 8
Last Quarter
Oct 15
New

Hourly Weather History & Observations

Time (CDT) Temp. Dew Point Humidity Pressure Visibility Wind Dir Wind Speed Gust Speed Precip Events Conditions
12:53 AM 62.1 °F 46.0 °F 56% 29.92 in 10.0 mi NNE 11.5 mph 19.6 mph N/A   Clear
1:53 AM 60.1 °F 46.0 °F 60% 29.93 in 10.0 mi NNW 6.9 mph - N/A   Scattered Clouds
2:53 AM 59.0 °F 46.9 °F 64% 29.94 in 10.0 mi North 10.4 mph - 0.00 in Rain Light Rain
3:53 AM 54.0 °F 51.1 °F 90% 29.93 in 6.0 mi North 3.5 mph - N/A Rain Light Rain
4:47 AM 53.6 °F 51.8 °F 94% 29.95 in 5.0 mi North 8.1 mph - N/A Rain Rain
4:53 AM 54.0 °F 51.1 °F 90% 29.94 in 4.0 mi North 6.9 mph - N/A Rain Light Rain
5:21 AM 53.6 °F 51.8 °F 94% 29.96 in 10.0 mi NNW 5.8 mph - N/A Rain Light Rain
5:44 AM 53.6 °F 51.8 °F 94% 29.97 in 10.0 mi NNW 4.6 mph - N/A Rain Light Rain
5:53 AM 53.1 °F 50.0 °F 89% 29.97 in 10.0 mi NNW 6.9 mph - N/A Rain Light Rain
7:53 AM 52.0 °F 46.9 °F 83% 29.97 in 10.0 mi NNW 10.4 mph - N/A   Mostly Cloudy
8:53 AM 52.0 °F 45.0 °F 77% 29.97 in 10.0 mi NNW 12.7 mph - N/A   Overcast
9:53 AM 52.0 °F 43.0 °F 71% 29.99 in 10.0 mi NNW 10.4 mph - N/A   Overcast
10:53 AM 54.0 °F 44.1 °F 69% 29.99 in 10.0 mi North 11.5 mph 18.4 mph N/A   Clear
11:53 AM 55.9 °F 44.1 °F 64% 30.00 in 10.0 mi North 11.5 mph - N/A   Clear
12:53 PM 59.0 °F 43.0 °F 55% 29.99 in 10.0 mi North 9.2 mph - N/A   Scattered Clouds
1:53 PM 62.1 °F 41.0 °F 46% 29.97 in 10.0 mi NW 11.5 mph - N/A   Scattered Clouds
2:53 PM 61.0 °F 37.9 °F 42% 29.96 in 10.0 mi NW 11.5 mph - N/A   Partly Cloudy
3:53 PM 60.1 °F 35.1 °F 39% 29.96 in 10.0 mi NNW 10.4 mph - N/A   Mostly Cloudy
4:53 PM 62.1 °F 35.1 °F 37% 29.94 in 10.0 mi North 16.1 mph 19.6 mph N/A   Overcast
5:53 PM 60.1 °F 34.0 °F 38% 29.96 in 10.0 mi NNW 12.7 mph - N/A   Partly Cloudy
6:53 PM 57.9 °F 35.1 °F 42% 29.96 in 10.0 mi North 6.9 mph - N/A   Partly Cloudy
7:53 PM 55.9 °F 37.0 °F 49% 29.98 in 10.0 mi North 6.9 mph - N/A   Overcast
8:53 PM 54.0 °F 37.0 °F 53% 29.99 in 10.0 mi North 4.6 mph - N/A   Mostly Cloudy
9:53 PM 54.0 °F 37.9 °F 55% 29.99 in 10.0 mi NNW 4.6 mph - N/A   Overcast
10:53 PM 51.1 °F 37.0 °F 59% 30.00 in 10.0 mi North 10.4 mph 18.4 mph 0.00 in   Mostly Cloudy
11:53 PM 50.0 °F 37.0 °F 61% 30.00 in 10.0 mi NNW 5.8 mph - N/A   Clear